KA5FVT Weather Reports


time (UTC)temp
C
wind
direction
speed
KPH
gust
KPH
rain 1hr
cm
rain 24hr
cm
rain mn
cm
humidity
%
barometer
mb
20260502170426 22 197 3.2 3.2 0.00 1.83 0.00 58 1020.6
20260502163926 21 236 1.6 4.8 0.00 1.91 0.00 59 1020.6
20260502163427 20 238 1.6 3.2 0.00 1.93 0.00 61 1020.6
20260502162926 20 236 1.6 3.2 0.00 1.98 0.00 61 1020.7
20260502162429 20 0 1.6 4.8 0.00 2.03 0.00 60 1020.6
20260502161927 19 177 1.6 4.8 0.00 2.11 0.00 65 1020.6
20260502161429 19 327 1.6 6.4 0.00 2.18 0.00 62 1020.6
20260502160926 19 337 3.2 8.0 0.00 2.24 0.00 63 1020.5
20260502160426 19 314 3.2 3.2 0.00 2.26 0.00 66 1020.4
20260502151926 17 252 0.0 3.2 0.00 2.39 0.00 77 1020.3
20260502151426 17 32 0.0 3.2 0.00 2.39 0.00 78 1020.2
20260502150926 17 30 1.6 4.8 0.00 2.39 0.00 78 1020.2
20260502150429 16 320 1.6 3.2 0.00 2.39 0.00 78 1020.3
20260502130426 12 338 1.6 3.2 0.00 3.45 0.00 91 1019.1
20260502123429 12 195 0.0 3.2 0.00 3.63 0.00 93 1018.6
20260502122926 12 184 0.0 0.0 0.00 3.71 0.00 93 1018.5
20260502122426 12 184 0.0 1.6 0.00 3.73 0.00 93 1018.6
20260502121926 12 184 0.0 0.0 0.00 3.76 0.00 94 1018.5
20260502121429 12 183 0.0 0.0 0.00 3.78 0.00 93 1018.4
20260502120930 12 184 0.0 0.0 0.00 3.78 0.00 93 1018.4
20260502120426 12 184 0.0 0.0 0.00 3.81 0.00 93 1018.2
20260502115926 12 184 0.0 0.0 0.00 3.86 0.00 93 1018.2
20260502115426 12 184 0.0 0.0 0.00 4.14 0.00 94 1018.1
20260502114926 12 184 0.0 0.0 0.00 4.27 0.00 94 1018.0
20260502114426 12 184 0.0 0.0 0.00 4.37 0.00 94 1018.1
20260502113926 11 184 0.0 1.6 0.00 4.45 0.00 94 1018.0
20260502113427 12 184 0.0 0.0 0.00 4.47 0.00 93 1018.1
20260502112929 11 184 0.0 0.0 0.00 4.52 0.00 94 1017.9
20260502112426 12 184 0.0 0.0 0.00 4.57 0.00 94 1017.8
20260502111926 11 184 0.0 0.0 0.00 4.57 0.00 93 1017.8
20260502111426 12 184 0.0 0.0 0.00 4.57 0.00 93 1017.8
20260502110929 12 184 0.0 0.0 0.00 4.60 0.00 93 1017.8
20260502110426 12 184 0.0 0.0 0.00 4.67 0.00 93 1017.7
20260502105927 12 184 0.0 1.6 0.00 4.80 0.00 93 1017.6
20260502105426 12 184 0.0 0.0 0.00 4.90 0.00 93 1017.6
20260502104926 12 183 0.0 1.6 0.00 4.90 0.00 93 1017.5
20260502104426 12 183 0.0 0.0 0.00 4.90 0.00 93 1017.5
20260502103926 12 183 0.0 0.0 0.00 4.90 0.00 93 1017.4
20260502103426 12 183 0.0 0.0 0.00 4.90 0.00 93 1017.3
20260502102926 12 183 0.0 0.0 0.00 4.93 0.00 93 1017.4
20260502102429 12 183 0.0 0.0 0.00 5.00 0.00 93 1017.3
20260502101929 12 183 0.0 0.0 0.00 5.31 0.00 93 1017.2
20260502101429 12 183 0.0 0.0 0.00 5.33 0.00 93 1017.1
20260502100926 12 183 0.0 0.0 0.00 5.33 0.00 93 1016.9
20260502100426 12 183 0.0 0.0 0.00 5.36 0.00 93 1016.9
20260502091426 12 182 0.0 0.0 0.00 6.63 0.00 93 1016.1
20260502090926 12 182 0.0 0.0 0.00 6.65 0.00 93 1016.0
20260502090429 12 182 0.0 0.0 0.00 6.68 0.00 93 1015.9
20260502071426 12 185 0.0 0.0 0.00 8.74 0.00 94 1015.9
20260502070927 12 185 0.0 3.2 0.00 8.74 0.00 94 1016.0
20260502070426 12 177 0.0 1.6 0.00 8.74 0.00 95 1016.0
20260502065926 12 167 0.0 1.6 0.00 8.74 0.00 95 1016.0
20260502065427 12 126 0.0 1.6 0.00 8.74 0.00 95 1015.8
20260502064926 12 126 0.0 0.0 0.00 8.74 0.00 95 1015.6
20260502064429 12 126 0.0 0.0 0.00 8.74 0.00 95 1015.7
20260502063926 12 126 0.0 0.0 0.00 8.74 0.00 95 1015.7
20260502063426 12 126 0.0 3.2 0.00 8.74 0.00 95 1015.6
20260502062926 12 351 0.0 3.2 0.00 8.74 0.00 95 1015.6
20260502062426 12 351 0.0 1.6 0.00 8.74 0.00 95 1015.6
20260502061926 12 351 0.0 1.6 0.00 8.74 0.00 95 1015.6
20260502061426 13 351 0.0 1.6 0.00 8.74 0.00 95 1015.5
20260502060926 13 221 0.0 1.6 0.00 8.74 0.00 95 1015.5
20260502060427 13 221 0.0 0.0 0.00 8.74 0.00 95 1015.5
20260502055926 13 221 0.0 1.6 0.00 8.74 0.00 95 1015.5
20260502055426 13 221 0.0 1.6 0.00 8.81 0.00 95 1015.6
20260502054927 13 219 0.0 3.2 0.00 8.86 0.00 95 1015.6
20260502054426 13 310 1.6 1.6 0.00 8.92 0.00 95 1015.5
20260502053926 13 299 0.0 4.8 0.00 8.92 0.00 95 1015.4
20260502053426 13 287 0.0 3.2 0.00 8.92 0.00 95 1015.5
20260502052926 13 291 1.6 1.6 0.00 8.92 0.00 95 1015.5
20260502052426 13 291 0.0 3.2 0.00 8.92 0.00 95 1015.6
20260502051926 13 291 0.0 3.2 0.00 8.94 0.00 95 1015.4
20260502051429 13 178 0.0 1.6 0.00 8.94 0.00 95 1015.4
20260502050927 13 321 0.0 3.2 0.00 9.04 0.00 95 1015.4
20260502050426 13 321 0.0 3.2 0.00 9.30 0.00 95 1015.4
20260502045926 13 321 0.0 3.2 0.00 9.55 0.00 95 1015.4
20260502045426 13 321 0.0 3.2 0.00 9.93 0.00 96 1015.5
20260502044926 13 321 0.0 0.0 0.00 10.03 0.00 96 1015.4
20260502044427 13 321 0.0 3.2 0.00 10.03 0.00 96 1015.4
20260502043927 13 348 0.0 4.8 0.00 10.03 0.00 96 1015.4
20260502043426 13 348 0.0 1.6 0.00 10.03 0.00 96 1015.2
20260502042926 13 349 0.0 3.2 0.00 10.03 0.00 95 1015.2
20260502042426 13 236 1.6 3.2 0.00 10.03 0.00 96 1015.1
20260502041926 13 161 0.0 3.2 0.00 10.03 0.00 95 1015.2
20260502041426 13 30 0.0 3.2 0.00 10.03 0.00 95 1015.3
20260502040930 13 77 0.0 3.2 0.00 10.03 0.00 96 1015.5
20260502040426 13 317 1.6 6.4 0.00 10.03 0.00 96 1015.6
20260502035926 13 350 0.0 3.2 0.00 10.03 0.00 96 1015.6
20260502035426 13 350 0.0 3.2 0.00 10.03 0.00 96 1015.5
20260502034926 13 5 0.0 1.6 0.00 10.03 0.00 96 1015.4
20260502034426 13 0 0.0 3.2 0.00 10.03 0.00 96 1015.2
20260502033926 13 294 0.0 4.8 0.00 10.03 0.00 96 1015.1
20260502033426 13 326 0.0 3.2 0.00 10.03 0.00 96 1015.0
20260502032927 13 326 1.6 4.8 0.00 10.03 0.00 95 1014.9
20260502032426 13 325 1.6 3.2 0.03 10.03 0.00 96 1014.9
20260502031929 13 325 0.0 3.2 0.03 10.03 0.00 95 1014.9
20260502031426 13 325 0.0 4.8 0.05 10.03 0.00 95 1014.8
20260502030926 13 323 0.0 6.4 0.08 10.03 0.00 95 1014.4
20260502030426 13 0 0.0 4.8 0.10 10.03 0.00 95 1014.5
20260502025930 13 309 1.6 4.8 0.10 10.03 0.00 96 1014.3
20260502025427 13 255 0.0 0.0 0.13 10.03 0.00 96 1014.1
20260502024926 13 253 0.0 1.6 0.13 10.03 0.00 96 1013.9
20260502024426 13 251 0.0 3.2 0.15 10.03 0.00 96 1013.8
20260502023929 13 296 0.0 1.6 0.15 10.03 0.00 96 1013.7
20260502023427 13 296 0.0 1.6 0.18 10.03 0.00 96 1013.8
20260502022926 13 296 0.0 1.6 0.20 10.03 0.00 96 1013.9
20260502022426 13 294 0.0 3.2 0.23 10.01 0.00 96 1014.1
20260502021927 13 294 0.0 0.0 0.25 10.01 0.00 96 1013.7
20260502021426 13 294 0.0 3.2 0.25 9.98 0.00 96 1013.5
20260502020926 13 294 0.0 3.2 0.25 9.96 0.00 96 1013.5
20260502020426 13 294 0.0 3.2 0.23 9.93 0.00 95 1013.5
20260502015926 13 294 0.0 3.2 0.20 9.91 0.00 95 1013.6
20260502015430 14 290 0.0 4.8 0.23 9.88 0.00 95 1013.4
20260502014926 14 316 0.0 3.2 0.23 9.88 0.00 96 1013.6
20260502014426 14 211 1.6 3.2 0.20 9.86 0.00 96 1013.6
20260502013926 14 197 0.0 1.6 0.20 9.86 0.00 96 1013.2
20260502013426 14 197 1.6 3.2 0.18 9.83 0.00 95 1013.0
20260502012926 14 306 0.0 3.2 0.15 9.80 0.00 95 1012.8
20260502012427 14 306 1.6 3.2 0.10 9.75 0.00 95 1012.8
20260502011926 15 306 0.0 3.2 0.10 9.73 0.00 96 1012.9
20260502011426 15 306 0.0 4.8 0.10 9.70 0.00 96 1012.9
20260502010929 15 322 0.0 1.6 0.10 9.68 0.00 96 1013.2
20260502010426 15 310 0.0 3.2 0.10 9.68 0.00 96 1013.3
20260502005929 15 320 0.0 1.6 0.15 9.68 0.00 96 1013.2
20260502005427 15 320 0.0 4.8 0.18 9.65 0.00 96 1012.3
20260502004926 15 19 0.0 1.6 0.18 9.65 0.00 96 1011.7
20260502004426 15 347 0.0 3.2 0.20 9.65 0.00 96 1011.4
20260502003926 15 355 0.0 1.6 0.20 9.65 0.00 96 1011.4
20260502003426 15 343 0.0 1.6 0.18 9.63 0.00 96 1011.7
20260502002926 15 343 0.0 1.6 0.18 9.63 0.00 96 1012.1
20260502002427 15 343 0.0 1.6 0.23 9.63 0.00 96 1012.4
20260502001926 15 343 0.0 3.2 0.20 9.60 0.00 96 1012.4
20260502001426 15 355 0.0 1.6 0.23 9.60 0.00 96 1012.1
20260502000926 15 114 0.0 1.6 0.33 9.58 0.00 96 1012.0
20260502000426 15 114 0.0 1.6 0.36 9.55 0.00 96 1012.4
20260501235927 15 284 0.0 1.6 0.33 9.50 0.00 96 1012.5
20260501235426 15 284 0.0 1.6 0.36 9.45 0.00 96 1012.2
20260501234926 15 284 1.6 4.8 0.36 9.45 0.00 96 1011.9
20260501234426 15 254 0.0 0.0 0.33 9.42 0.00 96 1011.5
20260501233926 15 254 0.0 1.6 0.33 9.42 0.00 96 1011.5
20260501233429 15 253 1.6 3.2 0.33 9.42 0.00 96 1011.2
20260501232927 15 252 0.0 3.2 0.33 9.42 0.00 96 1011.2
20260501232427 15 259 1.6 3.2 0.28 9.40 0.00 96 1010.7
20260501231929 15 196 0.0 3.2 0.28 9.40 0.00 96 1010.3
20260501231426 15 292 0.0 1.6 0.23 9.35 0.00 96 1010.7
20260501230927 15 292 0.0 1.6 0.15 9.25 0.00 96 1011.6
20260501230426 15 292 0.0 3.2 0.08 9.17 0.00 96 1012.0
20260501225929 15 303 0.0 4.8 0.05 9.14 0.00 96 1011.3
20260501225430 15 152 1.6 3.2 0.03 9.09 0.00 96 1010.2
20260501224929 15 182 0.0 3.2 0.03 9.09 0.00 96 1010.7
20260501224426 16 170 0.0 3.2 0.03 9.09 0.00 96 1010.0
20260501223926 16 119 0.0 1.6 0.03 9.09 0.00 96 1009.5
20260501223426 16 102 0.0 1.6 0.05 9.09 0.00 96 1009.6
20260501222926 16 53 0.0 3.2 0.08 9.09 0.00 96 1009.6
20260501222427 16 53 0.0 3.2 0.08 9.09 0.00 96 1009.6
20260501221926 16 340 0.0 0.0 0.08 9.09 0.00 96 1009.9
20260501221426 16 300 0.0 1.6 0.08 9.09 0.00 96 1010.1
20260501220926 16 301 0.0 3.2 0.08 9.09 0.00 96 1010.4
20260501220426 16 305 0.0 3.2 0.10 9.09 0.00 96 1010.6
20260501215926 16 305 0.0 3.2 0.10 9.09 0.00 96 1010.8
20260501215427 16 153 0.0 0.0 0.08 9.07 0.00 96 1011.1
20260501214926 16 153 0.0 1.6 0.10 9.07 0.00 96 1010.9
20260501214426 16 246 0.0 0.0 0.10 9.07 0.00 96 1011.3
20260501213926 16 246 0.0 0.0 0.13 9.07 0.00 96 1011.0
20260501213426 16 246 0.0 1.6 0.13 9.04 0.00 96 1010.9
20260501212926 16 246 0.0 1.6 0.13 9.02 0.00 96 1010.8
20260501212426 16 246 0.0 1.6 0.15 9.02 0.00 96 1010.8
20260501211927 16 246 1.6 3.2 0.18 9.02 0.00 96 1010.7
20260501211427 16 236 0.0 1.6 0.18 9.02 0.00 96 1010.0
20260501210926 16 236 0.0 1.6 0.20 9.02 0.00 96 1009.1
20260501210426 16 236 0.0 1.6 0.23 8.99 0.00 96 1009.3
20260501205929 16 237 0.0 1.6 0.25 8.99 0.00 96 1009.7
20260501205427 16 306 0.0 8.0 0.25 8.99 0.00 96 1009.8
20260501204926 16 269 0.0 3.2 0.23 8.97 0.00 96 1009.1
20260501204426 16 238 0.0 1.6 0.23 8.94 0.00 96 1010.7
20260501203930 16 238 0.0 3.2 0.20 8.92 0.00 96 1010.2
20260501203426 16 220 1.6 1.6 0.18 8.89 0.00 96 1009.2
20260501202926 16 221 0.0 1.6 0.15 8.86 0.00 96 1009.6
20260501202426 16 221 0.0 4.8 0.15 8.84 0.00 96 1009.6
20260501201926 16 310 1.6 3.2 0.13 8.81 0.00 96 1009.0
20260501201427 17 309 0.0 3.2 0.13 8.81 0.00 96 1009.0
20260501200926 17 303 1.6 3.2 0.10 8.79 0.00 96 1009.2
20260501200429 17 310 0.0 6.4 0.10 8.74 0.00 96 1009.6
20260501195926 17 290 1.6 1.6 0.08 8.71 0.00 96 1009.6
20260501195427 17 43 0.0 1.6 0.10 8.71 0.00 97 1009.0
20260501194929 17 36 0.0 0.0 0.10 8.71 0.00 97 1009.0
20260501194426 17 36 0.0 1.6 0.13 8.69 0.00 97 1009.0
20260501193926 17 36 1.6 1.6 0.23 8.69 0.00 97 1009.4
20260501193427 17 36 0.0 0.0 0.23 8.69 0.00 97 1009.1
20260501192926 17 36 0.0 1.6 0.25 8.69 0.00 97 1009.3
20260501192426 17 36 0.0 1.6 0.23 8.66 0.00 97 1009.1
20260501191927 17 182 0.0 1.6 0.25 8.66 0.00 97 1008.9
20260501191426 17 182 0.0 1.6 0.33 8.66 0.00 97 1009.4
20260501190926 17 182 0.0 0.0 0.33 8.66 0.00 97 1009.6
20260501190426 17 182 0.0 1.6 0.33 8.64 0.00 97 1009.5
20260501185926 17 182 0.0 1.6 0.33 8.64 0.00 97 1009.2
20260501185426 16 182 0.0 1.6 0.33 8.61 0.00 97 1009.1
20260501184926 16 182 0.0 0.0 0.33 8.59 0.00 97 1009.0
20260501184426 16 182 0.0 1.6 0.25 8.53 0.00 96 1009.3
20260501183932 16 183 0.0 0.0 0.20 8.43 0.00 96 1009.6
20260501183430 16 183 0.0 3.2 0.20 8.43 0.00 96 1009.6
20260501182926 16 177 0.0 6.4 0.18 8.41 0.00 96 1008.4
20260501182426 16 184 6.4 4.8 0.18 8.41 0.00 96 1007.8
20260501181926 16 104 0.0 6.4 0.15 8.38 0.00 96 1007.6
20260501181426 16 115 0.0 1.6 0.13 8.33 0.00 96 1007.5
20260501180926 16 146 0.0 3.2 0.13 8.33 0.00 96 1008.1
20260501180427 16 355 0.0 3.2 0.10 8.31 0.00 96 1008.4
20260501175926 17 219 0.0 1.6 0.10 8.31 0.00 96 1009.5
20260501175426 17 311 0.0 1.6 0.10 8.28 0.00 96 1009.5
20260501174926 17 311 0.0 1.6 0.10 8.26 0.00 96 1009.4
20260501174426 17 311 0.0 1.6 0.13 8.26 0.00 96 1009.9
20260501173926 17 311 0.0 1.6 0.10 8.23 0.00 96 1010.1
20260501173430 17 311 0.0 6.4 0.13 8.23 0.00 96 1010.3
20260501172929 17 295 0.0 3.2 0.15 8.20 0.00 96 1010.1